This is the latest recevied weather packets stored in our database for station/object KT2UU-13. If no packets are shown the sender has not sent any weather packets the latest 10 day(s).
| Time | Temp. | Humidity | Pressure | Rain* | Wind** | Luminosity | Snow |
|---|---|---|---|---|---|---|---|
| 1777535086 | 14.44° C | 97% | 1012.7 hPa | 1.27 mm | - | - | - |
| 1777534783 | 14.44° C | 97% | 1013 hPa | 1.78 mm | - | - | - |
| 1777534479 | 14.44° C | 97% | 1013 hPa | 3.05 mm | - | - | - |
| 1777534177 | 14.44° C | 97% | 1013.1 hPa | 3.05 mm | - | - | - |
| 1777533874 | 15° C | 96% | 1013.5 hPa | 4.83 mm | - | - | - |
| 1777533571 | 15° C | 96% | 1014 hPa | 4.32 mm | - | - | - |
| 1777533267 | 15° C | 96% | 1014.3 hPa | 6.1 mm | - | - | - |
| 1777532964 | 15° C | 95% | 1014.2 hPa | 10.67 mm | - | - | - |
| 1777532661 | 15.56° C | 95% | 1014.1 hPa | 6.6 mm | - | - | - |
| 1777532358 | 15.56° C | 94% | 1014 hPa | 6.1 mm | - | - | - |
| 1777532054 | 16.11° C | 91% | 1013.8 hPa | 6.1 mm | - | - | - |
| 1777531750 | 16.67° C | 91% | 1013.9 hPa | 3.05 mm | - | - | - |
| 1777531446 | 17.22° C | 86% | 1013.7 hPa | 0 mm | - | - | - |
| 1777531144 | 17.78° C | 82% | 1013.6 hPa | 0 mm | - | - | - |
| 1777530842 | 17.78° C | 80% | 1012.9 hPa | 0 mm | - | - | - |
| 1777530539 | 17.78° C | 81% | 1012.1 hPa | 0 mm | - | - | - |
| 1777530235 | 17.78° C | 80% | 1012 hPa | 0 mm | - | - | - |
| 1777529932 | 17.78° C | 82% | 1012.2 hPa | 0 mm | - | - | - |
| 1777529629 | 17.78° C | 82% | 1012.3 hPa | 0 mm | - | - | - |
| 1777529326 | 17.78° C | 82% | 1012.4 hPa | 0 mm | - | - | - |
| 1777529022 | 17.78° C | 82% | 1012.3 hPa | 0 mm | - | - | - |
| 1777528717 | 17.78° C | 82% | 1012.4 hPa | 0 mm | - | - | - |
| 1777528415 | 18.33° C | 82% | 1012.3 hPa | 0 mm | - | - | - |
| 1777528113 | 17.78° C | 82% | 1012.3 hPa | 0 mm | - | - | - |
| 1777527810 | 18.33° C | 83% | 1012.1 hPa | 0 mm | - | - | - |
* Rain latest hour (hover to see other rain measurements)
** Current wind speed in m/s (hover to see current wind gust speed)